STARLINK-1670, 46370

Orbit data source: Space-Track

STARLINK-1670, 46370 is a payload satellite owned by SpaceX/Seattle (US) in LEO that was launched on Thu, 03 Sep 2020 UTC via an FALCON 9 launch vehicle from the Air Force Eastern Test Range (AFETR). Payloads include a variety of satellites, spacecraft, and rockets equipped with specific instruments for various scientific and technological missions. These include communications satellites like Starlink; space stations such as the ISS; scientific satellites like the Hubble; Earth observation satellites from companies like Planet Labs, Umbra, and HawkEye 360; GPS; miniature CubeSats for education and research; and military/defense satellites.

Loading next visibility...
STARLINK-1670 details
Identifier
46370, 2020-062AX
Orbit
LEO
Last TLE update6 hours ago
Origin
Flag of USSpaceX/Seattle (US)
ManufacturerSpaceX/Seattle
MissionPartially operational Commercial Communications
Bus & MotorSTARLINK, Unknown motor
Mass260 kg wet, ~248 kg dry
Launch date (UTC)
2020-09-03 (4 years ago)
Launch vehicle
FALCON 9
Launch site
Air Force Eastern Test Range (AFETR)
Object type
Payload
Rocket body
Debris
Shape & HBRBox + 1 Pan, 8.86 m
Radar Cross Section13.562 m², Large (>1 m²)

Expand to show TLE details & history

TLE from 6 hours ago
0 STARLINK-1670
1 46370U 20062AX  24348.16668981  .00138528  00000-0  12848-2 0  9998
2 46370  53.0508 208.7561 0004755 172.0340 281.1969 15.66536228236922
Epoch: 2024-12-13T04:00Z
Definitive object data (Epoch: 2024-12-13T04:00:01.999Z)
Latitude53.08829°
Longitude161.69365°
Altitude374.696 km
Speed7.692 km/s
True Right ascension20h 16m 09s
True Declination52° 54' 49"
Sunlit
Object was in daylight at TLE epoch
Visualization TLE readout
Latitude51.44716°
Longitude134.97455°
Altitude375.048 km
Speed7.691 km/s
Apparent Right ascension19h 36m 05s
Apparent Declination7° 41' 44"
Sunlit
Object is in daylight
Visualization observer readout
Local Sidereal Time08:33:22
Azimuth18.833° NNE
Elevation-40.581°
Doppler factor1
Orbital elements
Apogee altitude372.311 km
Perigee altitude365.894 km
Semi-major axis6,747.239 km
Eccentricity0.0004755
Inclination53.0508°
RAAN208.7561°
Arg. of periapsis172.034°
True anomaly281.14344°
Mean anomaly281.1969°
Eccentric anomaly281.17017°
Mean motion3.9161 °/min
BSTAR0.0012848
Orbital period91.93 mins
Loading maneuver chart data...
Loading historical data...
Loading historical data...
Loading historical data...
Loading historical data...
Loading historical data...
Loading historical data...
Loading historical data...

STARLINK-1670 Visibility forecast

Observer location: undefined°, undefined

Span
Click to sort rows by Start time (UTC) header in descending order
Start Az.
Max El. time (UTC)
Max El. Az.
Max El.
End time (UTC)
End Az.
5 mins2024-12-13 17:33:30.740Z219.121° SW2024-12-13 17:36:30.740Z99.185° ESE40.525°2024-12-13 17:38:30.740Z57.611° ENE
4 mins2024-12-13 23:59:30.740Z327.105° NNW2024-12-14 00:01:30.740Z26.382° NE33.776°2024-12-14 00:03:30.740Z100.481° ESE
|